LHT6MR EDDM-EDJA

Flight info

Callsign LHT6MR
Flight time N/A
Altitude 8000
Route KIRDI3S KIRDI DCT RIDAR DCT ALG DCT KPT
Aircraft A20N/M-SDE2E3FGHIRWXY/LB1

Departure

Time 2026-05-07 18:36
Airport Munich Airport (EDDM)

Arrival

Time N/A
Airport Memmingen Allgau Airport (EDJA)
Time Latitude Longitude Altitude Speed Heading
2026-05-07 18:11 48.35019 11.79372 1467 ft 0 kts 263°
2026-05-07 18:24 48.35019 11.79381 1458 ft 2 kts 263°
2026-05-07 18:24 48.35020 11.79394 1460 ft 1 kts 263°
2026-05-07 18:24 48.35021 11.79408 1464 ft 1 kts 263°
2026-05-07 18:25 48.35022 11.79420 1460 ft 1 kts 263°
2026-05-07 18:25 48.35023 11.79432 1460 ft 1 kts 263°
2026-05-07 18:25 48.35024 11.79443 1460 ft 1 kts 263°
2026-05-07 18:25 48.35025 11.79453 1459 ft 1 kts 263°
2026-05-07 18:26 48.35026 11.79465 1459 ft 2 kts 263°
2026-05-07 18:26 48.35027 11.79481 1456 ft 2 kts 258°
2026-05-07 18:26 48.35030 11.79497 1462 ft 2 kts 239°
2026-05-07 18:26 48.35033 11.79506 1464 ft 2 kts 226°
2026-05-07 18:27 48.35044 11.79518 1458 ft 2 kts 197°
2026-05-07 18:27 48.35056 11.79521 1459 ft 1 kts 174°
2026-05-07 18:29 48.35053 11.79522 1460 ft 2 kts 174°
2026-05-07 18:29 48.35039 11.79524 1456 ft 4 kts 174°
2026-05-07 18:29 48.34980 11.79534 1464 ft 9 kts 174°
2026-05-07 18:30 48.34918 11.79546 1458 ft 8 kts 172°
2026-05-07 18:30 48.34885 11.79552 1465 ft 1 kts 172°
2026-05-07 18:30 48.34874 11.79555 1461 ft 2 kts 171°
2026-05-07 18:30 48.34866 11.79557 1460 ft 0 kts 171°
2026-05-07 18:31 48.34865 11.79557 1460 ft 1 kts 171°
2026-05-07 18:31 48.34856 11.79560 1463 ft 0 kts 170°
2026-05-07 18:33 48.34848 11.79562 1464 ft 3 kts 171°
2026-05-07 18:33 48.34803 11.79563 1457 ft 11 kts 187°
2026-05-07 18:33 48.34716 11.79549 1461 ft 13 kts 174°
2026-05-07 18:33 48.34640 11.79553 1466 ft 6 kts 207°
2026-05-07 18:34 48.34602 11.79487 1465 ft 11 kts 233°
2026-05-07 18:34 48.34549 11.79381 1460 ft 15 kts 233°
2026-05-07 18:34 48.34507 11.79298 1463 ft 0 kts 232°
2026-05-07 18:34 48.34503 11.79291 1463 ft 0 kts 232°
2026-05-07 18:35 48.34490 11.79264 1462 ft 8 kts 234°
2026-05-07 18:35 48.34444 11.79170 1461 ft 14 kts 233°
2026-05-07 18:35 48.34383 11.79037 1463 ft 17 kts 244°
2026-05-07 18:36 48.34343 11.78674 1466 ft 67 kts 263°
2026-05-07 18:36 48.34264 11.77652 1469 ft 127 kts 262°
2026-05-07 18:36 48.34146 11.76134 1674 ft 152 kts 264°
2026-05-07 18:36 48.34020 11.74529 2229 ft 157 kts 266°
2026-05-07 18:37 48.33920 11.72916 2865 ft 157 kts 268°
2026-05-07 18:37 48.33831 11.71162 3240 ft 174 kts 266°
2026-05-07 18:37 48.33701 11.69268 3575 ft 195 kts 264°
2026-05-07 18:37 48.33522 11.67113 3989 ft 219 kts 263°
2026-05-07 18:38 48.33310 11.64778 4812 ft 228 kts 263°
2026-05-07 18:38 48.33114 11.62385 5778 ft 231 kts 264°
2026-05-07 18:38 48.32936 11.59921 6546 ft 247 kts 264°
2026-05-07 18:38 48.32749 11.57249 6871 ft 262 kts 264°
2026-05-07 18:39 48.32555 11.54518 7376 ft 266 kts 264°
2026-05-07 18:39 48.32354 11.51738 7838 ft 264 kts 264°
2026-05-07 18:39 48.32151 11.48983 8005 ft 265 kts 264°
2026-05-07 18:39 48.31946 11.46222 8043 ft 265 kts 264°
2026-05-07 18:40 48.31741 11.43472 8051 ft 265 kts 264°
2026-05-07 18:40 48.31536 11.40723 8048 ft 265 kts 263°
2026-05-07 18:40 48.31329 11.37964 8051 ft 265 kts 263°
2026-05-07 18:40 48.31124 11.35249 8050 ft 265 kts 263°
2026-05-07 18:41 48.30907 11.32457 8053 ft 265 kts 261°
2026-05-07 18:41 48.30266 11.29921 8050 ft 266 kts 242°
2026-05-07 18:41 48.29319 11.27506 8048 ft 267 kts 240°
2026-05-07 18:41 48.28322 11.25000 8053 ft 297 kts 240°
2026-05-07 18:42 48.27202 11.22181 8053 ft 333 kts 240°
2026-05-07 18:42 48.25961 11.19061 8051 ft 364 kts 240°
2026-05-07 18:42 48.24628 11.15714 8050 ft 376 kts 240°
2026-05-07 18:42 48.23307 11.12400 8050 ft 375 kts 240°
2026-05-07 18:43 48.21965 11.09038 8048 ft 371 kts 240°
2026-05-07 18:43 48.20643 11.05725 8049 ft 372 kts 240°
2026-05-07 18:43 48.19301 11.02364 8048 ft 372 kts 240°
2026-05-07 18:43 48.17975 10.99049 8047 ft 372 kts 240°
2026-05-07 18:44 48.16658 10.95760 8048 ft 372 kts 240°
2026-05-07 18:44 48.15320 10.92424 8047 ft 372 kts 240°
2026-05-07 18:44 48.13988 10.89107 8049 ft 373 kts 240°
2026-05-07 18:44 48.12652 10.85784 8048 ft 373 kts 239°
2026-05-07 18:45 48.11334 10.82509 8046 ft 373 kts 239°
2026-05-07 18:45 48.09962 10.79103 8047 ft 373 kts 239°
2026-05-07 18:45 48.08617 10.75768 8047 ft 373 kts 239°
2026-05-07 18:45 48.07286 10.72472 8046 ft 373 kts 239°